星链-5739 (STARLINK-5739 )

导读

STARLINK-5739是美国太空探索技术公司SpaceX于2023年2月12日发射的星链卫星,归属Starlink星座组网序列,星链计划旨在搭建全球卫星互联网,为全球提供高速低延迟宽带通信服务。该卫星属于第二代星链卫星,运行于近地轨道,是星链大规模组网部署的组成单元,服务全球卫星互联网覆盖建设。

Basic Information
目录编号:
55571
目录名称:
STARLINK-5739
国际标识:
2023-020C
轨道中心:
EARTH
卫星名称:
星链-5739
卫星全名:
星链-5739 (STARLINK-5739 )
卫星状态:
在轨 (已飞行1300 天)
发射日期:
2023-02-12 UTC
国别 :
美国 (US)
星等 :
--
Orbit Information
数据来源 国际轨道数据
星历时间: 2026-09-02T07:25:42+0800
2天前
查看轨道信息
半长轴: 6861.201km
偏心率: 0.0002045
轨道倾角: 43.005°
近地点辐角 278.983°
升交点赤经 93.032°
平近点角 81.079°
近地点: 481.66km
远地点: 484.468km
周期: 94.267分钟
每日圈数: 15.275753
Detailed Information
固有亮度:
5
最大亮度:
2.5
卫星平台:
Starlink v1.5
覆盖范围:
全球
运营商:
太空探索技术公司
运营商所在国:
美国
制造商(研发单位):
太空探索技术公司
制造商所在国:
美国
使用方式:
暂无
Satellite Introduction
星链(Starlink)计划是由太空探索技术公司(SpaceX)提出的一个巨型低轨卫星互联网星座项目,计划在2019年至2024年间在太空搭建由约1.2万颗卫星组成的“星链”网络,其中1584颗将部署在地球上空550千米处的近地轨道,并从2020年开始工作。该卫星仍在工作。
2D Orbit Map
3D Orbit Map
Orbit Altitude Analysis Chart
Orbit Inclination Analysis Chart
Orbit Comprehensive Analysis Chart
View Comprehensive Chart
Conjunction Data List
Event ID Objects TCA Miss Dist (km) Collision Risk Probability Collision Risk Index (CRI) Action
CDM_260904-172905-557106-328021
2026-09-04T
17:29:12+0000
1.112 km
极远距离
1.356472E-5 中风险 0.58
CDM_260905-003205-557106-328021
2026-09-05T
00:32:53+0000
2.249 km
极远距离
1.634399E-6 低风险 0.39
CDM_260905-005805-557106-341021
2026-09-05T
00:58:02+0000
2.708 km
极远距离
1.068549E-6 低风险 0.36